Regional Weather Roundup
Issued by NWS

Home | Current Version | Previous Version | Graphics & Text | Print | Product List | Glossary Off
Versions: 1 2 3 4 5 6 7 8 9 10 11 12 13 14 15 16 17 18 19 20 21 22 23 24 25 26 27 28 29 30 31 32 33 34 35 36 37 38 39 40 41 42 43 44 45 46 47 48 49 50

000
ASUS43 KDMX 221601
RWRIA

WEATHER ROUNDUP FOR IOWA
NATIONAL WEATHER SERVICE DES MOINES IA
1100 AM CDT SUN APR 22 2018

NOTE: "FAIR" INDICATES FEW OR NO CLOUDS BELOW 12,000 FEET WITH NO
SIGNIFICANT WEATHER AND/OR OBSTRUCTIONS TO VISIBILITY.

* - THESE STATIONS ARE NOT NWS STATIONS...THUS NOT UNDER NWS
QUALITY CONTROL.  THEY ALSO DO NOT REPORT WEATHER SUCH
AS PRECIPITATION OR FOG.

IAZ001>003-012>014-020>022-031>034-043>046-221700-
   NORTHWEST IOWA

CITY           SKY/WX    TMP DP  RH WIND       PRES   REMARKS
CARROLL *      SUNNY     57  32  38 E12G17    30.25F
CHEROKEE *     MOSUNNY   55  36  49 E8        30.28F
DENISON *      CLOUDY    57  32  38 E13       30.26S
LE MARS *      MOSUNNY   54  36  50 E9        30.29S
ORANGE CITY *  SUNNY     55  39  54 E9        30.29S
SHELDON *      SUNNY     52  37  58 SE13      30.29R
SIOUX CITY     MOSUNNY   57  34  41 E8        30.27F
SPENCER        SUNNY     50  35  56 E9        30.30F
STORM LAKE *   SUNNY     54  36  50 E14       30.28F
$$

IAZ055>058-069>071-079>083-090>094-221700-
   SOUTHWEST IOWA

CITY           SKY/WX    TMP DP  RH WIND       PRES   REMARKS
ATLANTIC *     PTSUNNY   59  30  33 E12G18    30.22S
AUDUBON *      SUNNY     57  30  35 E13G18    30.24F
CLARINDA *     CLOUDY    57  32  38 E9G16     30.22S
COUNCIL BLFS * SUNNY     59  32  36 E12G20    30.21S
CRESTON *      MOSUNNY   57  30  35 E16       30.21S
HARLAN  *      CLOUDY    57  32  38 NE9G16    30.26S
LAMONI         MOSUNNY   56  32  40 E9        30.19F
RED OAK *      MOSUNNY   59  32  36 E15       30.20F
SHENANDOAH *   CLOUDY    59  34  38 E10       30.21S
$$

IAZ047>049-059>061-072>074-084-221700-
   CENTRAL IOWA

CITY           SKY/WX    TMP DP  RH WIND       PRES   REMARKS
AMES           PTSUNNY   57  29  34 E13       30.26F
ANKENY *       CLOUDY    55  28  35 E10       30.26F
BOONE *        MOSUNNY   57  28  33 E18       30.25S
CHARITON *     PTSUNNY   54  30  40 E12       30.21F
DES MOINES     CLOUDY    56  27  32 E10       30.24F
GRINNELL*      PTSUNNY   56  26  31 E16       30.27F
KNOXVILLE *    CLOUDY    55  27  33 E12G17    30.22F
MARSHALLTOWN   CLOUDY    57  30  35 E17       30.27F
NEWTON *       MOSUNNY   57  27  30 E15G22    30.25F
PELLA *        CLOUDY    58  26  29 E9G16     30.25F
$$

IAZ004>006-015-016-023>025-035-036-221700-
   NORTH CENTRAL IOWA

CITY           SKY/WX    TMP DP  RH WIND       PRES   REMARKS
ALGONA *       SUNNY     52  34  50 E12       30.32R
CLARION *      SUNNY     55  32  41 E17       30.29F
ESTHERVILLE    SUNNY     41  36  82 NE7       30.32S
FORT DODGE *   SUNNY     56  34  43 E17       30.28F
MASON CITY     SUNNY     53  36  52 E12       30.33S
FOREST CITY *  FAIR      52  32  46 E7        30.33R
IOWA FALLS *   FAIR      57  30  35 E14G20    30.29F
$$

IAZ007>011-017>019-026>030-037>042-050>054-066-221700-
   NORTHEAST IOWA

CITY           SKY/WX    TMP DP  RH WIND       PRES   REMARKS
CEDAR RAPIDS   FAIR      59  26  28 E17G25    30.27F
CHARLES CITY * FAIR      54  30  40 E14       30.32S
CLINTON *      FAIR      58  25  28 E22       30.31F
DECORAH *      FAIR      54  32  43 E8        30.32F
DUBUQUE        FAIR      55  24  30 SE8G18    30.33S
MONTICELLO *   FAIR      57  27  30 E12       30.30F
OELWEIN *      FAIR      55  28  35 E16       30.31S
WATERLOO       FAIR      57  26  30 SE15      30.30S
$$

IAZ064-065-067-068-078-221700-
   EAST CENTRAL IOWA

CITY           SKY/WX    TMP DP  RH WIND       PRES   REMARKS
DAVENPORT      FAIR      59  24  26 E17G24    30.31F
IOWA CITY      FAIR      58  24  27 E12G22    30.28F
MUSCATINE *    FAIR      57  23  26 E15G23    30.27F
QUAD CITIES    FAIR      59  26  28 E17       30.27F
$$

IAZ062-063-075>077-085>089-095>099-221700-
   SOUTHEAST IOWA

CITY           SKY/WX    TMP DP  RH WIND       PRES   REMARKS
BURLINGTON     CLOUDY    58  30  34 E15       30.23F
FAIRFIELD *    CLOUDY    57  28  33 E13G20    30.23F
FORT MADISON * CLOUDY    57  32  38 NE14      30.23F
KEOKUK *       CLOUDY    57  32  38 NE14      30.21F
OSKALOOSA *    PTSUNNY   57  28  32 E12       30.24F
CENTERVILLE *    N/A     55  32  41 E14       30.22S
OTTUMWA        CLOUDY    56  29  35 E15G23    30.23F
WASHINGTON *   CLOUDY    59  28  31 E17       30.26F
$$

ABBREVIATIONS USED IN REMARKS
   TC - TEMPERATURES IN CELSIUS
  WCI - WIND CHILL INDEX
   HX - HEAT INDEX
  VSB - VISIBILITY
$$





USA.gov is the U.S. government's official web portal to all federal, state and local government web resources and services.